カタログに戻る

EKRAN 20

運用中通信GEO
NORAD 22210·PAYLOAD·🇷🇺 Russia

打ち上げ Oct 30, 1992 から Baikonur Cosmodrome

Loading…

TLE

最新Source: Space-Track

元期: Sep 13, 2026, 17:37 UTC

1 22210U 92074A   26256.73444787 -.00000116  00000-0  00000-0 0  9993
2 22210  13.6368 343.6483 0005059 222.9818 124.1980  1.00327754 48251

AllMySatでEKRAN 20をリアルタイム追跡

Download on the App Store